Location: ?astrovice
(49.6513°N, 14.9287°E)
Time: 08:42:37
(UTC+00:00)

Cosmos 1833 Rocket - Pass Details

Date: 09 April 2020
Orbit: 834 x 838 km, 71.0° (Epoch: 24 May)

Event Time Altitude Azimuth Distance (km) Brightness Sun altitude
Exits shadow 22:20:45 20° 271° (W) 1,827 4.5 -31.6°
Maximum altitude 22:23:26 30° 314° (NW) 1,473 4.3 -31.7°
Drops below altitude 10° 22:28:22 10° 15° (NNE) 2,462 5.8 -31.9°
Sets 22:31:08 0° 26° (NNE) 3,399 6.6 -31.9°
